Location: Huntsville
(41.2590°N, 111.7678°W)
Time: 07:55:12
(UTC+00:00)

Vanguard 3 - Pass Details

Date: 18 June 2021
Orbit: 508 x 3261 km, 33.4° (Epoch: 29 July)

Event Time Altitude Azimuth Distance (km) Brightness Sun altitude
Rises 18:47:14 0° 263° (W) 3,144 10.1 70.2°
Reaches altitude 10° 18:49:26 10° 253° (WSW) 2,440 9.7 70.4°
Maximum altitude 18:54:35 33° 190° (S) 1,801 9.8 70.8°
Drops below altitude 10° 19:02:50 10° 131° (SE) 3,970 11.1 71.4°
Sets 19:07:29 0° 124° (ESE) 5,469 11.6 71.6°
